User: anonymous   Login
Location: Cactus School
(34.5700°N, 118.0931°W)
Time: 18:06:26
(UTC-08:00)
Language:

Tiros 1 - Orbit

View from above orbital plane
View from above orbital plane
View from above satellite
View from above satellite

Ground track
Ground track

The orbit data is extracted from the following two-line orbital elements,

1 00029U 60002B   21024.19532540 -.00000122  00000-0  12950-4 0  9994
2 00029  48.3810 346.8386 0023404  96.8658 263.4918 14.74399590251114
Epoch (UTC): 24 January 2021 04:41:16
Eccentricity: 0.0023404
inclination: 48.3810°
perigee height: 630 km
apogee height: 663 km
right ascension of ascending node: 346.8386°
argument of perigee: 96.8658°
revolutions per day: 14.74399590
mean anomaly at epoch: 263.4918°
orbit number at epoch: 25111

The dashed part of the orbit path shows where the satellite is in the earth's shadow,  

DLR